TimeEST,TemperatureF,Dew PointF,Humidity,Sea Level PressureIn,VisibilityMPH,Wind Direction,Wind SpeedMPH,Gust SpeedMPH,PrecipitationIn,Events,Conditions,WindDirDegrees,DateUTC
12:15 AM,40.8,38.1,90,30.38,10.0,Calm,Calm,-,N/A,,Clear,0,2012-11-11 05:15:00
12:35 AM,41.0,38.7,91,30.38,10.0,Calm,Calm,-,N/A,,Clear,0,2012-11-11 05:35:00
12:55 AM,40.5,38.1,91,30.37,10.0,Calm,Calm,-,N/A,,Clear,0,2012-11-11 05:55:00
1:15 AM,40.5,38.3,92,30.37,10.0,Calm,Calm,-,N/A,,Clear,0,2012-11-11 06:15:00
1:40 AM,39.9,37.8,92,30.37,7.0,Calm,Calm,-,N/A,,Clear,0,2012-11-11 06:40:00
2:00 AM,39.4,37.4,93,30.37,7.0,Calm,Calm,-,N/A,,Clear,0,2012-11-11 07:00:00
2:20 AM,39.6,37.6,93,30.37,10.0,Calm,Calm,-,N/A,,Clear,0,2012-11-11 07:20:00
2:40 AM,39.2,37.4,93,30.37,7.0,Calm,Calm,-,N/A,,Clear,0,2012-11-11 07:40:00
3:05 AM,39.4,37.4,93,30.37,10.0,Calm,Calm,-,N/A,,Clear,0,2012-11-11 08:05:00
3:25 AM,39.2,37.2,93,30.38,7.0,Calm,Calm,-,N/A,,Clear,0,2012-11-11 08:25:00
3:45 AM,39.2,37.4,93,30.38,7.0,Calm,Calm,-,N/A,,Clear,0,2012-11-11 08:45:00
4:10 AM,39.0,37.2,93,30.39,7.0,Calm,Calm,-,N/A,,Clear,0,2012-11-11 09:10:00
4:30 AM,38.5,36.9,94,30.40,5.0,Calm,Calm,-,N/A,,Clear,0,2012-11-11 09:30:00
4:50 AM,38.3,36.7,94,30.40,7.0,Calm,Calm,-,N/A,,Clear,0,2012-11-11 09:50:00
5:10 AM,38.3,36.7,94,30.40,4.0,Calm,Calm,-,N/A,,Clear,0,2012-11-11 10:10:00
5:55 AM,37.9,36.5,95,30.41,5.0,Calm,Calm,-,N/A,,Clear,0,2012-11-11 10:55:00
6:15 AM,37.8,36.3,95,30.42,7.0,Calm,Calm,-,N/A,,Clear,0,2012-11-11 11:15:00
6:35 AM,37.8,36.3,95,30.43,5.0,Calm,Calm,-,N/A,,Clear,0,2012-11-11 11:35:00
7:20 AM,37.6,36.0,94,30.45,7.0,Calm,Calm,-,N/A,,Clear,0,2012-11-11 12:20:00
8:25 AM,44.2,41.0,88,30.47,10.0,Calm,Calm,-,N/A,,Clear,0,2012-11-11 13:25:00
8:45 AM,46.6,41.7,83,30.47,10.0,Calm,Calm,-,N/A,,Clear,0,2012-11-11 13:45:00
9:45 AM,54.3,42.1,63,30.47,10.0,Calm,Calm,-,N/A,,Clear,0,2012-11-11 14:45:00
10:10 AM,56.3,41.5,58,30.47,10.0,South,3.5,-,N/A,,Clear,170,2012-11-11 15:10:00
10:30 AM,57.6,40.6,53,30.47,10.0,South,3.5,-,N/A,,Clear,170,2012-11-11 15:30:00
10:50 AM,58.8,40.3,50,30.46,10.0,SSE,3.5,-,N/A,,Clear,160,2012-11-11 15:50:00
11:10 AM,60.6,40.3,47,30.46,10.0,SSE,3.5,-,N/A,,Clear,150,2012-11-11 16:10:00
11:35 AM,62.6,40.5,44,30.45,10.0,Calm,Calm,-,N/A,,Clear,0,2012-11-11 16:35:00
11:55 AM,64.0,40.3,42,30.44,10.0,Calm,Calm,-,N/A,,Clear,0,2012-11-11 16:55:00
12:15 PM,65.5,40.3,40,30.43,10.0,SW,3.5,-,N/A,,Clear,230,2012-11-11 17:15:00
12:35 PM,66.2,39.6,38,30.41,10.0,Calm,Calm,-,N/A,,Clear,0,2012-11-11 17:35:00
1:20 PM,69.8,38.7,32,30.39,10.0,Calm,Calm,-,N/A,,Clear,0,2012-11-11 18:20:00
1:40 PM,71.2,38.1,30,30.39,10.0,Calm,Calm,-,N/A,,Clear,0,2012-11-11 18:40:00
2:00 PM,72.7,36.1,26,30.38,10.0,South,3.5,-,N/A,,Clear,180,2012-11-11 19:00:00
2:25 PM,73.4,33.8,23,30.38,10.0,South,5.8,-,N/A,,Clear,170,2012-11-11 19:25:00
2:45 PM,73.8,31.5,21,30.38,10.0,South,8.1,-,N/A,,Clear,170,2012-11-11 19:45:00
3:05 PM,73.8,30.6,20,30.38,10.0,South,6.9,-,N/A,,Clear,190,2012-11-11 20:05:00
3:25 PM,72.9,30.7,21,30.38,10.0,South,3.5,-,N/A,,Clear,190,2012-11-11 20:25:00
3:50 PM,71.6,32.0,23,30.39,10.0,Calm,Calm,-,N/A,,Clear,0,2012-11-11 20:50:00
4:10 PM,70.3,32.7,25,30.39,10.0,ESE,3.5,-,N/A,,Clear,120,2012-11-11 21:10:00
4:30 PM,66.7,41.9,40,30.39,10.0,ESE,4.6,-,N/A,,Clear,110,2012-11-11 21:30:00
4:50 PM,65.5,41.9,42,30.40,10.0,ESE,4.6,-,N/A,,Clear,120,2012-11-11 21:50:00
5:15 PM,63.1,42.4,47,30.41,10.0,Calm,Calm,-,N/A,,Clear,0,2012-11-11 22:15:00
5:35 PM,60.6,43.0,52,30.42,10.0,Calm,Calm,-,N/A,,Clear,0,2012-11-11 22:35:00
5:55 PM,60.3,43.2,53,30.42,10.0,Calm,Calm,-,N/A,,Clear,0,2012-11-11 22:55:00
6:15 PM,58.1,43.2,58,30.43,10.0,Calm,Calm,-,N/A,,Clear,0,2012-11-11 23:15:00
6:40 PM,54.7,43.7,66,30.43,10.0,Calm,Calm,-,N/A,,Clear,0,2012-11-11 23:40:00
7:00 PM,53.8,43.3,68,30.43,10.0,Calm,Calm,-,N/A,,Clear,0,2012-11-12 00:00:00
7:20 PM,52.5,43.7,72,30.43,10.0,Calm,Calm,-,N/A,,Clear,0,2012-11-12 00:20:00
7:40 PM,49.6,43.9,81,30.43,10.0,Calm,Calm,-,N/A,,Clear,0,2012-11-12 00:40:00
8:05 PM,50.2,44.6,81,30.44,10.0,Calm,Calm,-,N/A,,Clear,0,2012-11-12 01:05:00
8:45 PM,48.6,45.1,88,30.44,10.0,Calm,Calm,-,N/A,,Clear,0,2012-11-12 01:45:00
9:05 PM,48.6,44.4,86,30.44,10.0,Calm,Calm,-,N/A,,Clear,0,2012-11-12 02:05:00
9:25 PM,47.5,44.2,89,30.44,10.0,Calm,Calm,-,N/A,,Clear,0,2012-11-12 02:25:00
9:50 PM,47.3,44.6,90,30.44,10.0,Calm,Calm,-,N/A,,Clear,0,2012-11-12 02:50:00
10:10 PM,46.6,43.9,90,30.43,7.0,Calm,Calm,-,N/A,,Clear,0,2012-11-12 03:10:00
10:30 PM,46.4,44.2,92,30.43,7.0,Calm,Calm,-,N/A,,Clear,0,2012-11-12 03:30:00
10:55 PM,46.4,44.1,92,30.43,7.0,Calm,Calm,-,N/A,,Clear,0,2012-11-12 03:55:00
11:15 PM,46.4,43.7,90,30.44,7.0,Calm,Calm,-,N/A,,Clear,0,2012-11-12 04:15:00
11:30 PM,45.9,43.7,92,30.44,7.0,Calm,Calm,-,N/A,,Clear,0,2012-11-12 04:30:00
11:55 PM,45.3,43.2,92,30.43,7.0,Calm,Calm,-,N/A,,Clear,0,2012-11-12 04:55:00